Location: Drawsko Pomorskie
(53.5317°N, 15.8111°E)
Time: 06:33:52
(UTC+02:00)

ISS - Pass Details

Date: 28 January 2019
Orbit: 411 x 421 km, 51.6° (Epoch: 19 October)

Event Time Altitude Azimuth Distance (km) Brightness Sun altitude
Rises 17:35:19 0° 236° (SW) 2,407 1.8 -9.6°
Reaches altitude 10° 17:37:30 10° 229° (SW) 1,544 0.3 -9.9°
Maximum altitude 17:40:46 39° 159° (SSE) 678 -2.8 -10.3°
Enters shadow 17:43:20 15° 94° (E) 1,291 -1.9 -10.7°
